Regional Weather Roundup
Issued by NWS Sioux Falls, SD

Home | Current Version | Previous Version | Text Only | Print | Product List | Glossary On
Versions: 1 2 3 4 5 6 7 8 9 10 11 12 13 14 15 16 17 18 19 20 21 22 23 24 25 26 27 28 29 30 31 32 33 34 35 36 37 38 39 40 41 42 43 44 45 46 47 48 49 50
000
ASUS43 KFSD 190202
RWRFSD

WEATHER ROUNDUP FOR SE SOUTH DAKOTA/SW MINNESOTA/NW IOWA
NATIONAL WEATHER SERVICE SIOUX FALLS SD
900 PM CDT WED OCT 18 2017

NOTE: "FAIR" INDICATES FEW OR NO CLOUDS BELOW 12,000 FEET WITH NO
SIGNIFICANT WEATHER AND OR OBSTRUCTIONS TO VISIBILITY.


SDZ038>040-050-052>070-190300-
SOUTHEAST SOUTH DAKOTA

CITY           SKY/WX    TMP DP  RH WIND       PRES   REMARKS
BROOKINGS      CLEAR     49  30  48 CALM      30.05S
CHAMBERLAIN    CLOUDY    50  32  50 CALM      30.05S
HURON          CLOUDY    48  32  53 S3        30.04S
MADISON        FAIR      48  25  40 NW6       30.06S
MITCHELL       CLEAR     48  34  58 S6        30.05S
SIOUX FALLS    PTCLDY    47  37  68 W5        30.05R
WINNER         FAIR      49  33  54 S9        30.05F
YANKTON        CLEAR     48  36  63 NW6       30.06R
$$

MNZ071-072-080-081-089-090-097-098-190300-
SOUTHWEST MINNESOTA

CITY           SKY/WX    TMP DP  RH WIND       PRES   REMARKS
FAIRMONT       CLEAR     52  33  48 NW6       30.03S
JACKSON        CLOUDY    50  32  50 W3        30.04S
LUVERNE        CLEAR     45  32  61 CALM      30.05S
MARSHALL       CLOUDY    46  33  60 W8        30.04R
MONTEVIDEO     CLOUDY    48  28  46 NW5       30.03R
PIPESTONE      CLEAR     48  30  49 CALM      30.05S
REDWOOD FALLS  CLOUDY    51  26  37 W5        30.03R
TRACY          CLOUDY    50  33  51 W5        30.04S
WORTHINGTON    CLEAR     46  34  62 NW3       30.05S
$$

IAZ001>003-012>014-020>022-031-032-NEZ013-014-SDZ071-190300-
NORTHWEST IOWA

CITY           SKY/WX    TMP DP  RH WIND       PRES   REMARKS
CHEROKEE       CLEAR     49  44  83 CALM      30.04R
DENISON        CLEAR     50  46  87 CALM      30.05R
ESTHERVILLE    CLOUDY    45  37  73 NW6       30.03R
LE MARS        PTCLDY    55  37  50 N5        30.04S
ORANGE CITY    CLOUDY    61  34  36 N7        30.05S
SHELDON        CLEAR     43  39  87 CALM      30.03S
SIOUX CITY     CLEAR     49  44  83 W3        30.04R
SPENCER        CLEAR     45  38  76 CALM      30.04R
STORM LAKE     CLEAR     59  36  41 N6        30.04R
$$

ABBREVIATIONS USED IN REMARKS
   TC - TEMPERATURE IN CELSIUS
  WCI - WIND CHILL INDEX
   HX - HEAT INDEX
  VSB - VISIBILITY





USA.gov is the U.S. government's official web portal to all federal, state and local government web resources and services.